This demonstration page uses our WeatherBlox Daily Observations layout. Learn more.

Left ArrowRight Arrow

41.86663, -103.66717

Hourly Observations for October 8, 2018

Temp ( °F °C ) Dew Point ( °F °C ) Humidity (%) Winds ( mph kmh ) Pressure ( in mb ) Visibility ( mi km ) Precip ( " mm )
12:34 am 00:34 Cloudy with Light Rain 37 3 37 3 100 100 NE 7 11 30.09 1019 10 16 0.00 0.00
12:53 am 00:53 Cloudy with Light Rain 38 3.3 38 3.3 100 100 NNE 7 11 30.04 1017 8 13 0.00 0.03
1:25 am 01:25 Cloudy 38 3.3 37 2.8 97 97 NNE 7 11 30.06 1018 10 16 0.00 0.03
1:53 am 01:53 Cloudy 37 2.8 37 2.8 100 100 ENE 6 9 30.05 1018 10 16 0.00 0.03
2:13 am 02:13 Cloudy 37 2.8 37 2.8 100 100 ENE 6 9 30.09 1019 10 16 0.00 0.00
2:38 am 02:38 Cloudy 37 2.8 36 2.2 96 96 NNE 5 7 30.09 1019 10 16 0.00 0.00
2:53 am 02:53 Cloudy 37 2.8 37 2.8 100 100 NE 5 7 30.05 1018 10 16 0.00 0.00
3:04 am 03:04 Cloudy 37 3 36 2 93 93 N 3 6 30.09 1019 10 16 0.00 0.00
3:11 am 03:11 Cloudy 37 2.8 36 2.2 96 96 N 6 9 30.09 1019 10 16 0.00 0.00
3:33 am 03:33 Cloudy with Light Rain 37 2.8 36 2.2 96 96 N 5 7 30.09 1019 10 16 0.00 0.03
3:53 am 03:53 Cloudy 36 2.2 36 2.2 100 100 NNW 5 7 30.04 1017 10 16 0.00 0.03
4:53 am 04:53 Cloudy 36 2.2 36 2.2 100 100 NNW 6 9 30.04 1017 8 13 0.00 0.00
5:23 am 05:23 Cloudy with Light Rain 36 2.2 36 2.2 100 100 NNW 6 9 30.06 1018 10 16 0.00 0.03
5:38 am 05:38 Cloudy with Light Rain 36 2 36 2 100 100 NNW 6 9 30.12 1020 10 16 0.00 0.00
5:53 am 05:53 Cloudy with Light Rain 36 2.2 36 2.2 100 100 N 6 9 30.03 1017 10 16 0.00 0.03
6:53 am 06:53 Cloudy 36 2.2 36 2.2 100 100 NNW 5 7 30.05 1018 10 16 0.00 0.03
7:05 am 07:05 Cloudy 36 2.2 36 2.2 100 100 N 7 11 30.12 1020 9 14 0.00 0.00
7:30 am 07:30 Cloudy with Mist and Fog 36 2 36 2 100 100 NNW 5 7 30.12 1020 6 10 0.00 0.00
7:53 am 07:53 Cloudy 36 2.2 36 2.2 100 100 NNW 5 7 30.05 1018 10 16 0.00 0.00
8:53 am 08:53 Cloudy 37 2.8 35 1.7 93 93 N 7 11 30.06 1018 10 16 0.00 0.03
9:32 am 09:32 Cloudy with Light Rain 37 3 36 2 93 93 N 7 11 30.12 1020 10 16 0.00 0.00
9:53 am 09:53 Cloudy with Light Rain 36 2.2 35 1.7 97 97 N 8 13 30.08 1019 7 11 0.00 0.03
10:11 am 10:11 Cloudy with Light Snow 36 2.2 35 1.7 97 97 N 6 9 30.12 1020 2 3 0.01 0.25
10:26 am 10:26 Cloudy with Light Snow 36 2 36 2 100 100 N 6 9 30.15 1021 2 3 0.00 0.00
10:34 am 10:34 Cloudy with Light Snow 36 2 36 2 100 100 N 7 11 30.15 1021 3 4 0.00 0.00
10:44 am 10:44 Cloudy with Light Snow 36 2 36 2 100 100 N 6 9 30.12 1020 2 2 0.00 0.00
10:53 am 10:53 Cloudy with Light Snow 36 2.2 36 2.2 100 100 N 5 7 30.08 1019 3 4 0.04 1.02
11:00 am 11:00 Cloudy with Light Snow 37 3 37 3 100 100 N 5 7 30.09 1019 5 8 0.00 0.00
11:13 am 11:13 Cloudy with Light Rain 37 2.8 37 2.8 100 100 NE 6 9 30.09 1019 10 16 0.00 0.03
11:22 am 11:22 Cloudy with Light Rain 37 3 37 3 100 100 N 8 13 30.12 1020 10 16 0.00 0.00
11:53 am 11:53 Cloudy 38 3.3 36 2.2 93 93 N 7 11 30.07 1018 10 16 0.00 0.03
12:00 pm 12:00 Cloudy 39 4 37 3 93 93 N 6 9 30.09 1019 10 16 0.00 0.00
12:33 pm 12:33 Cloudy 39 3.9 36 2.2 89 89 NE 9 15 30.09 1019 10 16 0.00 0.00
12:53 pm 12:53 Cloudy 40 4.4 37 2.8 89 89 NNE 10 17 30.04 1017 10 16 0.00 0.00
1:53 pm 13:53 Cloudy 40 4.4 36 2.2 86 86 N 10 17 30.02 1017 10 16 0.00 0.00
2:53 pm 14:53 Cloudy with Light Rain 40 4.4 36 2.2 86 86 NE 12 19 30.01 1016 9 14 0.00 0.03
3:53 pm 15:53 Cloudy with Light Rain 39 3.9 37 2.8 93 93 NE 9 15 30.02 1017 4 6 0.00 0.03
4:53 pm 16:53 Cloudy with Light Rain 38 3.3 37 2.8 97 97 NE 6 9 30.04 1017 6 10 0.01 0.25
5:41 pm 17:41 Cloudy with Light Rain 38 3.3 38 3.3 100 100 NE 7 11 30.06 1018 4 6 0.01 0.25
5:48 pm 17:48 Cloudy with Light Rain 37 3 37 3 100 100 NNE 7 11 30.06 1018 5 8 0.00 0.00
5:53 pm 17:53 Cloudy with Light Rain 37 2.8 37 2.8 100 100 NE 8 13 30.05 1018 4 6 0.01 0.25
6:03 pm 18:03 Cloudy with Light Rain 37 2.8 37 2.8 100 100 NE 7 11 30.06 1018 5 8 0.00 0.03
6:13 pm 18:13 Cloudy with Light Rain 37 2.8 37 2.8 100 100 NNE 7 11 30.06 1018 7 11 0.01 0.25
6:27 pm 18:27 Cloudy 37 2.8 37 2.8 100 100 NNE 7 11 30.09 1019 10 16 0.01 0.25
6:53 pm 18:53 Cloudy with Light Rain 36 2.2 36 2.2 100 100 NNE 6 9 30.07 1018 10 16 0.01 0.25
7:53 pm 19:53 Cloudy 36 2.2 36 2.2 100 100 NE 7 11 30.07 1018 10 16 0.00 0.03
8:53 pm 20:53 Cloudy 37 2.8 36 2.2 96 96 N 5 7 30.09 1019 10 16 0.00 0.00
9:27 pm 21:27 Cloudy with Light Rain 36 2.2 36 2.2 100 100 N 5 7 30.15 1021 10 16 0.00 0.03
9:43 pm 21:43 Cloudy with Light Rain 36 2.2 36 2.2 100 100 NNE 6 9 30.15 1021 10 16 0.00 0.03
9:53 pm 21:53 Cloudy with Light Rain 36 2.2 36 2.2 100 100 N 6 9 30.11 1020 10 16 0.00 0.03
10:03 pm 22:03 Cloudy with Light Rain 36 2.2 36 2.2 100 100 N 6 9 30.15 1021 10 16 0.00 0.03
10:53 pm 22:53 Cloudy 36 2.2 36 2.2 100 100 N 5 7 30.10 1019 10 16 0.00 0.03
11:53 pm 23:53 Mostly Cloudy 34 1.1 34 1.1 100 100 Calm 30.11 1020 10 16 0.00 0.00

Powered by AerisWeather